EDLWEDDR

Guest
Details From EDLW - Dortmund-Wickede
To EDDR - Saarbrucken
Flight Number -
Tags generated
Created
Modified
Stats Distance 140 nm / 259 km
Max Altitude 12,500 ft / 3,810 m
Waypoints 3
Social Downloads 0
Likes 0
Share VATSIM

Download

Looking for another format? Having issues loading an existing format? Contact us
Advertisement - Login to hide

Notes

Basic altitude profile: - Ascent Rate: 2500ft/min - Ascent Speed: 250kts - Cruise Altitude: 35000ft - Cruise Speed: 420kts - Descent Rate: 1500ft/min - Descent Speed: 250kts Options: - Use NATs: yes - Use PACOTS: yes - Use low airways: yes - Use high airways: yes

Route

EDLW OSMAX EDDR

ID Type Via Altitude Latitude Longitude Leg Dist Tot Dist Heading (true) Name
O EDLW APT - 0 ft / 0 m 51.51911˚ 7.61445˚ - 0 nm - Dortmund-Wickede
OSMAX FIX - 12,500 ft / 3,810 m 50.26056˚ 7.32333˚ 76 nm 76 nm 188° / 188° -
O EDDR APT - 0 ft / 0 m 49.21534˚ 7.11261˚ 63 nm 139 nm 188° / 187° Saarbrucken

Altitude Profile

Advertisement - Login to hide

EDLW

Details ICAO EDLW (DTM)
Name Dortmund-Wickede
Region Germany - Civil
Timezone Europe/Berlin (UTC+2.0)
Stats Elevation 425 ft / 130 m (AMSL)
Location 51.519107° 7.614447°
Runways 1
Magnetic Variation 2.129° E

METAR

EDLW 220720Z 28009G23KT 230V330 9999 FEW012 SCT024 BKN042 10/08 Q1023

Decode

TAF

TAF EDLW 220500Z 2206/2306 27010KT 9999 BKN030 TEMPO 2206/2209 RA BKN012 TEMPO 2209/2212 SHRA BKN020TCU BECMG 2304/2306 BKN012

Decode

Departure Runways

ID Width Length Bearing (true) Bearing (mag) Surface Threshold Offset Overrun Length
06 148 ft / 45 m 6,546 ft / 1,995 m 60.50° 58.37° Asphalt 984 ft / 300 m 197 ft / 60 m
24 148 ft / 45 m 6,546 ft / 1,995 m 240.52° 238.39° Asphalt 984 ft / 300 m 197 ft / 60 m

EDDR

Details ICAO EDDR (SCN)
Name Saarbrucken
Region Germany - Civil
Timezone Europe/Berlin (UTC+2.0)
Stats Elevation 1,057 ft / 322 m (AMSL)
Location 49.215343° 7.112610°
Runways 2
Magnetic Variation 2.021° E

METAR

EDDR 220720Z 32006KT 280V020 9999 FEW028 12/06 Q1026 NOSIG

Decode

TAF

TAF EDDR 220500Z 2206/2306 32003KT CAVOK BECMG 2207/2210 31010KT BECMG 2219/2221 34003KT

Decode

Destination Runways

ID Width Length Bearing (true) Bearing (mag) Surface Threshold Offset Overrun Length
09 148 ft / 45 m 6,450 ft / 1,966 m 87.38° 85.36° Asphalt 85 ft / 26 m 0 ft / 0 m
09L 164 ft / 50 m 1,784 ft / 544 m 87.10° 85.08° Grass 0 ft / 0 m 0 ft / 0 m
27 148 ft / 45 m 6,450 ft / 1,966 m 267.40° 265.38° Asphalt 0 ft / 0 m 0 ft / 0 m
27R 164 ft / 50 m 1,784 ft / 544 m 267.10° 265.08° Grass 0 ft / 0 m 0 ft / 0 m

Approach Navaids

Runway Type Ident Frequency Range Bearing (true) Bearing (mag) Slope Elevation
27 Localiser DSB 108.70 MHz 25 nm / 46 km 267.37° 265.35° - 1,021 ft / 311 m (AMSL)
27 Glidescope DSB 108.70 MHz 10 nm / 19 km 267.39° 265.37° 3.00° 1,056 ft / 322 m (AMSL)

Popular Alternatives